Regional Weather Roundup
Issued by NWS

Home | Current Version | Previous Version | Graphics & Text | Print | Product List | Glossary On
Versions: 1 2 3 4 5 6 7 8 9 10 11 12 13 14 15 16 17 18 19 20 21 22 23 24 25 26 27 28 29 30 31 32 33 34 35 36 37 38 39 40 41 42 43 44 45 46 47 48 49 50
000
ASUS43 KLOT 060008
RWRIL

ILLINOIS REGIONAL WEATHER ROUNDUP
NATIONAL WEATHER SERVICE CHICAGO/ROMEOVILLE IL
700 PM CDT TUE MAY 05 2015

NOTE: "FAIR" INDICATES FEW OR NO CLOUDS BELOW 12,000 FEET WITH NO
SIGNIFICANT WEATHER AND/OR OBSTRUCTIONS TO VISIBILITY.

* THESE STATIONS ARE NOT UNDER NWS QUALITY CONTROL. THEY ALSO MAY NOT
  REPORT WEATHER SUCH AS PRECIPITATION OR FOG.

ILZ001-002-007-009-015-016-024-060100-
NORTHWEST ILLINOIS

CITY           SKY/WX    TMP DP  RH WIND       PRES   REMARKS
MOLINE         PTSUNNY   67  61  81 E15       30.11R HAZE
6HR MIN TEMP:  67; 6HR MAX TEMP:  73;

STERLING*      CLOUDY    59  55  88 E16       30.14F
SAVANNA*       CLOUDY    60  56  86 NE10      30.15F
$$

ILZ003-004-008-010-011-017-018-060100-
NORTH CENTRAL ILLINOIS

CITY           SKY/WX    TMP DP  RH WIND       PRES   REMARKS
ROCKFORD       CLOUDY    54  49  83 E12       30.21R
6HR MIN TEMP:  54; 6HR MAX TEMP:  58; 6HR PCP: TRACE;

FREEPORT*      CLOUDY    54  51  92 E12       30.19F
ROCHELLE*      CLOUDY    56  53  92 NE16      30.17F FOG
DE KALB*       CLOUDY    52  50  91 NE15      30.19S FOG
PERU*          PTCLDY    64  60  84 NE13      30.14R HAZE
$$

ILZ005-006-012>014-019>023-060100-
NORTHEAST ILLINOIS

CITY           SKY/WX    TMP DP  RH WIND       PRES   REMARKS
CHICAGO-OHARE  CLOUDY    50  47  89 NE9       30.20S FOG
6HR MIN TEMP:  48; 6HR MAX TEMP:  50;

CHICAGO-MIDWAY CLOUDY    54  49  83 N8        30.19F FOG
6HR MIN TEMP:  54; 6HR MAX TEMP:  58;

AURORA         MOCLDY    56  50  80 NE13      30.18S
6HR MIN TEMP:  56; 6HR MAX TEMP:  63;

LANSING*       CLOUDY    53  48  85 CALM      30.19S FOG
JOLIET*        CLOUDY    59  55  86 NE15      30.17S
WAUKEGAN       CLOUDY    46  45  96 N6        30.22S FOG
6HR MIN TEMP:  45; 6HR MAX TEMP:  47; 6HR PCP: TRACE;

DUPAGE AIRPORT CLOUDY    52  49  89 NE10      30.19S
6HR MIN TEMP:  52; 6HR MAX TEMP:  58;

KANKAKEE*      CLOUDY    61  59  92 NE9G18    30.16R FOG
WHEELING       CLOUDY    48  46  93 N6        30.22F FOG
6HR MIN TEMP:  47; 6HR MAX TEMP:  50;

MORRIS*        CLOUDY    61  56  83 NE9       30.15R HAZE
ROMEOVILLE*    CLOUDY    55  52  88 NE16      30.18R FOG
NORTHERLY ISL    N/A     47  46  97 N9          N/A
$$

LMZ740>746-060100-
SOUTHERN LAKE MICHIGAN

STATION/POSITION SKY/WX   TEMP    WIND        PRES    VSBY  WAVE
                          AIR SEA DIR/SP/G                  HT/PER
                          (F)     (DEG/KT/KT) (MB)    (MI)  (FT/S)
HARRISON CRIB              45      10/  9/ 10   N/A
BURNHAM HARBOR             47     350/  7/ 10   N/A
CALUMET HARBOR             47     350/  9/ 11   N/A
BURNS HARBOR               53      40/  7/  8 1022.4S
MICHIGAN CITY              56      30/ 12/ 13   N/A
MICHIGAN CITY 6N           51 50   40/ 10/ 12   N/A           2/ 4
ST. JOSEPH                 54 49  120/  8/ 10   N/A           1/ 3
$$

ILZ025>027-034>036-040-047-049-050-058-095>099-060100-
WEST-CENTRAL ILLINOIS

CITY           SKY/WX    TMP DP  RH WIND       PRES   REMARKS
QUINCY         PTSUNNY   79  53  40 S7        30.07R
MACOMB*        SUNNY     79  62  55 SE3       30.10R HX  80
JACKSONVILLE*  PTCLDY    83  55  37 S15       30.08S HX  82
PITTSFIELD*    MOSUNNY   81  56  41 S9        30.09R HX  81
$$

ILZ028>032-037-038-041>044-048-051>054-059>061-060100-
CENTRAL ILLINOIS

CITY           SKY/WX    TMP DP  RH WIND       PRES   REMARKS
PONTIAC        MOCLDY    69  66  88 NE15      30.14R FOG
BLOOMINGTON    MOCLDY    74  67  78 NE14      30.12S
DECATUR        CLEAR     80  52  37 SW10      30.10S HX  80
PEORIA         PTCLDY    76  64  66 E12       30.10S
6HR MIN TEMP:  76; 6HR MAX TEMP:  84; 6HR PCP: TRACE;

LACON*         PTCLDY    70  64  83 E12       30.11S HAZE
LINCOLN*       PTCLDY    79  64  59 N5        30.06S HX  80
SPRINGFIELD    PTCLDY    82  53  36 S12       30.08S HX  81
6HR MIN TEMP:  82; 6HR MAX TEMP:  87;

TAYLORVILLE    CLOUDY    79  54  41 S10       30.10R
$$

ILZ033-039-045-046-055>057-062-063-060100-
EAST-CENTRAL ILLINOIS

CITY           SKY/WX    TMP DP  RH WIND       PRES   REMARKS
CHAMPAIGN      MOCLDY    82  49  31 S9        30.11R HX  81
DANVILLE*      CLOUDY    79  51  37 SW9       30.10R
RANTOUL*       CLOUDY    75  66  74 NE13G20   30.12R
MATTOON        PTCLDY    80  54  40 S9        30.11S HX  80
PARIS*         PTCLDY    81  53  38 S7        30.13R HX  80
$$

ILZ079-100>102-060100-
SOUTHWEST ILLINOIS

CITY           SKY/WX    TMP DP  RH WIND       PRES   REMARKS
ALTON          MOCLDY    77  55  47 S7        30.10F
CAHOKIA*       PTCLDY    82  58  43 S6        30.09S HX  82
SPARTA*        CLOUDY    74  62  66 SE5       30.13S
$$

ILZ064>066-069>071-074>076-080>082-084>086-088>090-092>094-060100-
SOUTH-CENTRAL ILLINOIS

CITY           SKY/WX    TMP DP  RH WIND       PRES   REMARKS
CARBONDALE     CLOUDY    75  59  57 S3        30.12F
6HR MIN TEMP:  74; 6HR MAX TEMP:  85;

CAIRO*         CLOUDY    79  57  46 S3        30.12S HX  80
EFFINGHAM*     MOCLDY    79  50  36 S5        30.13S
MARION         CLOUDY    79  61  53 SW5       30.14S HX  80
MT. VERNON     CLEAR    N/A N/A N/A S7        30.13S
CENTRALIA*     PTCLDY    76  56  49 S7        30.12S
SALEM*         PTCLDY    82  53  36 S6        30.12S HX  81
METROPOLIS*    PTCLDY    80  54  40 SE3       30.12S HX  80
$$

ILZ067-068-072-073-078-083-087-091-060100-
SOUTHEAST ILLINOIS

CITY           SKY/WX    TMP DP  RH WIND       PRES   REMARKS
LAWRENCEVILLE  CLEAR     81  53  37 S13       30.13S HX  80
FLORA*         CLEAR     81  53  38 S7        30.12S HX  80
FAIRFIELD*     CLEAR     81  54  39 S6        30.11S HX  80
HARRISBURG*    CLEAR     81  53  38 S7        30.14S HX  80
ROBINSON*      CLEAR     81  50  34 S7        30.14R HX  80
CARMI*         CLEAR     80  46  30 S9        30.13S
$$

ABBREVIATIONS USED IN REMARKS
   TC - TEMPERATURE IN CELSIUS
  WCI - WIND CHILL INDEX
   HX - HEAT INDEX
  VSB - VISIBILITY
$$



USA.gov is the U.S. government's official web portal to all federal, state and local government web resources and services.